Regional Weather Roundup
Issued by NWS Kansas City/Pleasant Hill, MO

Home | Current Version | Previous Version | Graphics & Text | Print | Product List | Glossary Off
Versions: 1 2 3 4 5 6 7 8 9 10 11 12 13 14 15 16 17 18 19 20 21 22 23 24 25 26 27 28

000
ASUS43 KEAX 292310
RWREAX

WEATHER ROUNDUP FOR EASTERN KANSAS AND NORTHWEST MISSOURI
NATIONAL WEATHER SERVICE KANSAS CITY/PLEASANT HILL MO
600 PM CDT SUN MAY 29 2016

KSZ040-057-103>105-MOZ028-029-037-043-300000-
...KANSAS CITY METROPOLITAN AREA...

CITY           SKY/WX    TMP DP  RH WIND       PRES   REMARKS
K.C. INTL      CLOUDY    80  64  58 S5        30.04F
K.C. DOWNTOWN  CLOUDY    84  57  39 W5        30.02F
LEES SUMMIT    CLOUDY    83  56  39 S8        30.05F
OLATHE - IXD   CLOUDY    82  59  45 S9        30.05F
OLATHE - OJC   MOSUNNY   81  61  50 S5        30.05F
LAWRENCE       CLOUDY    81  60  48 S8        30.03F

$$

MOZ001>008-011>017-020>025-030>033-038>040-044>046-053-054-300000-
...NORTHERN AND CENTRAL MISSOURI...

CITY           SKY/WX    TMP DP  RH WIND       PRES   REMARKS
ST. JOSEPH     CLOUDY    85  59  41 S9        30.01F
MOSBY          CLOUDY    82  61  47 CALM      30.03F
WARRENSBURG    CLOUDY    82  59  44 S3        30.05F
WHITEMAN AFB   NOT AVBL
CLINTON        CLOUDY    84  63  48 CALM      30.06F
SEDALIA        CLOUDY    85  59  41 NW3       30.07S
WARSAW         NOT AVBL
CHILLICOTHE      N/A     84  63  49 S3        30.04F
KIRKSVILLE     MOSUNNY   82  62  50 W5        30.05F

$$

MOZ041-047>049-056>058-063>065-088>090-097-300000-
...EASTERN AND SOUTHERN MISSOURI...

CITY           SKY/WX    TMP DP  RH WIND       PRES   REMARKS
ST. LOUIS INTL MOSUNNY   85  56  37 NW9       30.05F
SPIRIT OF STL  MOSUNNY   86  58  38 NW9       30.03F
COLUMBIA       MOSUNNY   84  58  40 W3        30.06F
JEFFERSON CITY SUNNY     86  56  35 N3        30.05S
ROLLA          SUNNY     83  62  49 NE3       30.07S
SPRINGFIELD    CLOUDY    83  61  47 N5        30.08F
BRANSON        PTSUNNY   82  61  47 CALM      30.11S
JOPLIN         CLOUDY    82  67  60 N3        30.06F
WEST PLAINS    CLOUDY    83  60  45 CALM      30.11F

$$

IAZ060-094-KSZ022-034>040-054-083-096-NEZ052-066-093-300000-
...KANSAS...SOUTHEAST NEBRASKA AND IOWA...

CITY           SKY/WX    TMP DP  RH WIND       PRES   REMARKS
TOPEKA         CLOUDY    80  62  54 SE7       30.02F
MANHATTAN      CLOUDY    71  65  81 CALM      30.02S
EMPORIA        SUNNY     77  65  66 S9        30.05F
CHANUTE        CLOUDY    80  69  69 S3        30.05F
WICHITA        PTSUNNY   75  58  55 SE20G28   30.05R
OMAHA          MOSUNNY   87  56  34 N5        29.98F
LINCOLN        SUNNY     85  57  38 CALM      29.99F
FALLS CITY     SUNNY     86  59  39 SW5       29.99F
LAMONI           N/A     81  63  54 W8        30.03F
DES MOINES     MOSUNNY   83  52  34 W8        30.00F

$$





USA.gov is the U.S. government's official web portal to all federal, state and local government web resources and services.